Regional Weather Roundup
Issued by NWS

Home | Current Version | Previous Version | Text Only | Print | Product List | Glossary On
Versions: 1 2 3 4 5 6 7 8 9 10 11 12 13 14 15 16 17 18 19 20 21 22 23 24 25 26 27 28 29 30 31 32 33 34 35 36 37 38 39 40 41 42 43 44 45 46 47 48 49 50
671
ASUS45 KBOU 211307
RWRCO

WEATHER ROUNDUP FOR COLORADO
NATIONAL WEATHER SERVICE DENVER/BOULDER CO
600 AM MST TUE FEB 21 2017

NOTE: "FAIR" INDICATES FEW OR NO CLOUDS BELOW 12000 FEET WITH NO
SIGNIFICANT WEATHER AND/OR OBSTRUCTIONS TO VISIBILITY.

COZ001>005-013-030-031-211400-
...NORTHWEST COLORADO...

CITY           SKY/WX    TMP DP  RH WIND       PRES   REMARKS
CRAIG          CLOUDY    43  30  60 SW9       30.18S
HAYDEN         CLOUDY    39  27  60 E5        30.19S
MEEKER         CLOUDY    42  32  67 SW3       30.22S
MOUNT WERNER   NOT AVBL
STEAMBOAT SPGS CLOUDY    38  27  64 E9        30.20S
WALDEN         NOT AVBL
$$

COZ006>008-011-211400-
...WEST CENTRAL VALLEYS...

CITY           SKY/WX    TMP DP  RH WIND       PRES   REMARKS
GRAND JUNCTION FAIR      41  34  76 E9        30.26S
MONTROSE       FAIR      37  31  78 SE8       30.33R
EAGLE          CLOUDY    35  28  75 E9        30.29F WCI  28
RIFLE          CLOUDY    41  35  79 SE3       30.26S
DELTA          MOCLDY    42  34  72 CALM      30.31S
NUCLA          FAIR      39  32  75 E6        30.37S
$$

COZ017>023-064>068-211400-
...SOUTHWEST COLORADO...

CITY           SKY/WX    TMP DP  RH WIND       PRES   REMARKS
DURANGO        FAIR      31  28  89 E5        30.39R WCI  26
CORTEZ         CLOUDY    40  37  89 CALM      30.37R
PAGOSA SPRINGS CLOUDY    28  28  96 CALM      30.41R
TELLURIDE      FAIR      32  25  74 CALM      30.41R
WOLF CREEK PAS FAIR      21  21 100 SW13      30.48R WCI   9
$$

COZ009-010-012-014-032>034-037-058>063-211400-
...CENTRAL COLORADO...

CITY           SKY/WX    TMP DP  RH WIND       PRES   REMARKS
ASPEN          FAIR      27  21  78 S7        30.29S WCI  19
BUENA VISTA    FAIR      36  22  56 NW7       30.30R
COPPER MTN     MOCLDY    28  19  69 W10G21    30.36S WCI  19
BERTHOUD PASS  FAIR      21  10  63 W26G44    30.31R WCI   4
COTTONWOOD PAS FAIR      37  23  56 W22G32    30.33R
GUNNISON       MOCLDY    23  20  88 CALM      30.40R
KREMMLING      MOCLDY    45  30  57 NW6       30.25F
LEADVILLE      FAIR      24  18  77 NE5       30.32R WCI  18
MONARCH PASS   FOG       23  21  93 W22G38    30.51S VSB 1/4 WCI   8
SALIDA         FAIR      43  27  52 W13G22    30.37S
SUNLIGHT       NOT AVBL
WILKERSON PASS FAIR      28  18  64 W13G25    30.37S WCI  18
$$

COZ069>075-211400-
...SAN LUIS VALLEY/SANGRE DE CRISTO MOUNTAINS...

CITY           SKY/WX    TMP DP  RH WIND       PRES   REMARKS
ALAMOSA        FAIR      24  21  88 N3        30.35R
LA VETA PASS   FAIR      28  19  69 NE29G43   30.31R WCI  13
SAGUACHE       FAIR      30  23  74 W7        30.36S WCI  23
$$

COZ035-036-038>040-211400-
...NORTHERN COLORADO FRONT RANGE...

CITY           SKY/WX    TMP DP  RH WIND       PRES   REMARKS
DENVER INTL AP FAIR      44  19  36 VRB3      30.04S
DMNS CITY PARK   N/A     58  18  21 W7G20     30.04S
AURORA         PTCLDY    48  18  29 W8        30.07R
FRONT RANGE AP NOT AVBL
ERIE MUNI ARPT FAIR      57  21  24 W30G48    30.00R
BOULDER MUN AP FAIR      55  27  33 W36G51    30.01R
CENTENNIAL     FAIR      48  17  29 S7        30.08R
BROOMFIELD     PTCLDY    57  19  23 W44G53    29.99S
FORT COLLINS   FAIR      53  25  33 NE10      30.01S
LONGMONT       FAIR      58  25  28 W28G38    30.02R
$$

COZ041-046-047-076>085-087-088-211400-
...PIKES PEAK/PALMER DIVIDE AND SOUTHERN FOOTHILLS...

CITY           SKY/WX    TMP DP  RH WIND       PRES   REMARKS
COLO. SPRINGS  FAIR      56  16  20 NW39G53   30.07F
A. F. ACADEMY  FAIR      49  20  31 N12G31    30.11R
SCHRIEVER AFB  FAIR      47  17  29 W15       30.10R
ELLICOTT       FAIR     N/A N/A N/A N15       30.09R
FALCON         FAIR      49  17  27 W28G37    30.12R
FORT CARSON    FAIR      37  12  34 CALM      30.08R
LIMON          FAIR      33  17  51 NW8       30.06R WCI  26
MONUMENT HILL  FAIR      43  19  39 W13       30.13R
TRINIDAD       FAIR      39  15  37 W13       30.13R
$$

COZ042>045-048>051-090-091-211400-
...NORTHEAST COLORADO...

CITY           SKY/WX    TMP DP  RH WIND       PRES   REMARKS
GREELEY ARPT   FAIR      31  20  63 E5        30.02S WCI  26
AKRON          FAIR      33  13  43 W13       30.01R WCI  24
BURLINGTON     FAIR      34  16  47 W13       30.00R WCI  25
WRAY           NOT AVBL
STERLING       FAIR      27  19  74 S12       30.00S WCI  16
HOLYOKE        FAIR      34  21  60 W10       29.97S WCI  26
FORT MORGAN    FAIR      34  14  44 W5        30.02S WCI  30
$$

COZ086-089-092>099-211400-
...SOUTHEAST COLORADO...

CITY           SKY/WX    TMP DP  RH WIND       PRES   REMARKS
PUEBLO         FAIR      54  24  31 NW18G26   30.06R
LA JUNTA       FAIR      38  18  44 W5        30.06R
LAMAR          FAIR      33  16  49 SW10      30.01S WCI  25
SPRINGFIELD      N/A     32  14  47 SW10      30.05S WCI  24
$$




USA.gov is the U.S. government's official web portal to all federal, state and local government web resources and services.